sat.trackr.live / text

‹ back to catalog

HULIANWANG DIGUI-86

NORAD 65821 · 2025-220E

PAYLOAD ACTIVE UNKNOWN

§ Identity

Operator
Country
PRC
Launch date
2025-09-27
Launch site
TAISC
Launch vehicle
Mass (kg)
RCS (m²)

External: N2YO · Heavens-Above · Gunter

§ Orbital elements

Epoch: 2026-05-25T04:01:27.812064Z

Period
108.73 min
Inclination
86.4984°
Eccentricity
0.0001678
Mean motion
13.24417505 rev/d
Perigee alt
1,166.6 km
Apogee alt
1,169.2 km
Semi-major
7,546.0 km
B*
9.7436e-5
RAAN
51.6046°
Arg perigee
81.7401°
Mean anomaly
278.3923°
Rev number
3,187

§ Raw data

HULIANWANG DIGUI-861 65821U 25220E   26145.16768301  .00000056  00000+0  97436-4 0  99962 65821  86.4984  51.6046 0001678  81.7401 278.3923 13.24417505 31873

JSON: /api/v1/satellites/65821 · /tle

For live sub-satellite position, see the globe view (requires WebGL).

§ Visibility from observer

Set your observer location to see the next 7 days of passes ≥ 10°. The values pass through the URL so the page stays shareable.

No JS? Fill the form by hand. The geolocation button needs JavaScript.